Weather History for Clarksville, TN

Change the Weather History Date:

Saturday, October 22, 2011

  Actual Average Record
Temperature  
Mean Temperature 51 °F -  
Max Temperature 69 °F - 89 °F (1953)
Min Temperature 32 °F - 24 °F (1982)
Degree Days  
Heating Degree Days 14    
Month to date heating degree days 132  
Since 1 July heating degree days  
Cooling Degree Days 0    
Month to date cooling degree days 10  
Moisture  
Dew Point 37 °F    
Average Humidity 67    
Maximum Humidity 100    
Minimum Humidity 34    
Precipitation  
Precipitation 0.00 in - 3.01 in (2007)
Month to date precipitation 0.89  
Sea Level Pressure  
Sea Level Pressure 30.15 in    
Wind  
Wind Speed 1 mph (SSE)    
Max Wind Speed 10 mph    
Max Gust Speed 15 mph    
Visibility 6 miles    
Events Fog    
T = Trace of Precipitation, MM = Missing Value Source: NWS Daily Summary

Daily Weather History Graph

Daily Weather History Graph

Search for Another Location

Airport:

Trip Planner

Search our weather history database for the weather conditions in past years. The results will help you decide how hot, cold, wet, or windy it might be!

Date:

Astronomy

Oct. 22, 2011 Rise Set
Actual Time 7:03 AM CDT 6:04 PM CDT
Civil Twilight 6:36 AM CDT 6:30 PM CDT
Nautical Twilight 6:06 AM CDT 7:00 PM CDT
Astronomical Twilight 5:36 AM CDT 7:30 PM CDT
Moon 2:07 AM CDT (10/22) 3:15 PM CDT (10/22)
Length of Visible Light 11h 53m
Length of Day
11h 01m
Waning Crescent, 23% of the Moon is Illuminated
Oct 22
Waning Crescent
Oct 26
New
Nov 2
First Quarter
Nov 10
Full
Nov 18
Last Quarter

Hourly Weather History & Observations

Time (CDT) Temp. Dew Point Humidity Pressure Visibility Wind Dir Wind Speed Gust Speed Precip Events Conditions
12:52 AM 37.9 °F 37.0 °F 97% 30.16 in 10.0 mi Calm Calm - N/A   Clear
1:52 AM 37.9 °F 36.0 °F 93% 30.17 in 10.0 mi Calm Calm - N/A   Clear
2:52 AM 36.0 °F 35.1 °F 97% 30.16 in 10.0 mi Calm Calm - N/A   Clear
3:37 AM 35.6 °F 35.6 °F 100% 30.16 in 1.2 mi Calm Calm - N/A   Clear
3:45 AM 35.6 °F 33.8 °F 93% 30.16 in 0.5 mi Calm Calm - N/A Fog Fog
3:50 AM 35.6 °F 33.8 °F 93% 30.16 in 2.0 mi Calm Calm - N/A   Clear
3:52 AM 35.1 °F 34.0 °F 96% 30.17 in 2.5 mi Calm Calm - N/A   Clear
3:59 AM 35.6 °F 35.6 °F 100% 30.16 in 4.0 mi Calm Calm - N/A   Clear
4:52 AM 35.1 °F 34.0 °F 96% 30.18 in 10.0 mi Calm Calm - N/A   Clear
5:19 AM 35.6 °F 33.8 °F 93% 30.18 in 2.0 mi Calm Calm - N/A   Clear
5:23 AM 33.8 °F 33.8 °F 100% 30.18 in 0.8 mi Calm Calm - N/A   Clear
5:43 AM 33.8 °F 33.8 °F 100% 30.18 in 1.2 mi Calm Calm - N/A   Clear
5:52 AM 34.0 °F 33.1 °F 96% 30.19 in 1.0 mi Calm Calm - N/A   Clear
6:06 AM 33.8 °F 33.8 °F 100% 30.19 in 1.8 mi Calm Calm - N/A   Clear
6:18 AM 33.8 °F 33.8 °F 100% 30.18 in 0.8 mi Calm Calm - N/A   Clear
6:52 AM 33.1 °F 32.0 °F 96% 30.20 in 0.5 mi Calm Calm - N/A Fog Fog
7:27 AM 32.0 °F 32.0 °F 100% 30.20 in 2.0 mi Calm Calm - N/A   Clear
7:42 AM 33.8 °F 33.8 °F 100% 30.20 in 1.5 mi Calm Calm - N/A   Clear
7:45 AM 33.8 °F 33.8 °F 100% 30.20 in 3.0 mi Calm Calm - N/A   Clear
7:52 AM 34.0 °F 34.0 °F 100% 30.21 in 5.0 mi Calm Calm - N/A   Clear
8:52 AM 43.0 °F 39.9 °F 89% 30.22 in 10.0 mi Calm Calm - N/A   Clear
9:52 AM 51.1 °F 41.0 °F 68% 30.21 in 10.0 mi Calm Calm - N/A   Clear
11:52 AM 62.1 °F 37.0 °F 39% 30.18 in 10.0 mi WNW 4.6 mph - N/A   Clear
12:52 PM 64.0 °F 36.0 °F 35% 30.15 in 10.0 mi Variable 3.5 mph - N/A   Clear
1:52 PM 66.0 °F 37.0 °F 34% 30.12 in 10.0 mi Calm Calm - N/A   Clear
2:52 PM 68.0 °F 39.9 °F 36% 30.11 in 10.0 mi Variable 5.8 mph - N/A   Clear
3:52 PM 68.0 °F 39.0 °F 35% 30.09 in 10.0 mi WNW 5.8 mph - N/A   Clear
4:52 PM 66.0 °F 37.9 °F 36% 30.09 in 10.0 mi Calm Calm - N/A   Clear
5:52 PM 64.9 °F 39.0 °F 39% 30.10 in 10.0 mi Calm Calm - N/A   Clear
6:52 PM 57.9 °F 41.0 °F 53% 30.09 in 10.0 mi Calm Calm - N/A   Clear
7:52 PM 54.0 °F 41.0 °F 62% 30.10 in 10.0 mi Calm Calm - N/A   Clear
8:52 PM 50.0 °F 42.1 °F 74% 30.10 in 10.0 mi SE 3.5 mph - N/A   Clear
9:52 PM 48.0 °F 42.1 °F 80% 30.11 in 10.0 mi SE 3.5 mph - N/A   Clear
10:52 PM 48.0 °F 42.1 °F 80% 30.08 in 10.0 mi SE 3.5 mph - N/A   Clear
11:52 PM 48.0 °F 42.1 °F 80% 30.08 in 10.0 mi Calm Calm - N/A   Clear